M I D A S
Marine Information and Data Acquisition System
Tripno 1102 of the Zeeleeuw from 2006-05-10 06:48:14 to 2006-05-10 14:04:03
Back to CruiseResearch ActivitiesStationsMapUnderway DataData graphs

EquipmentUnitsComment
TimeDGPSUTC
LatitudeDGPSDM.mWGS84
LongitudeDGPSDM.mWGS84
HeadingGyrodeg 
SOGDGPSknotsSpeed over ground
COGDGPSdegCourse over ground
DepthEcho soundermeters200 kHz
Missing or incorrect values are displayed as -999
Navigation data collected by the RV Zeeleeuw from 2006-05-10 06:44:12 to 2006-05-10 14:21:31
                                                                                    Next 1000 lines
Time Latitude Longitude Heading SOG COG Depth
2006-05-10 06:44:22 51°13.601 2°56.093 107.8 0.9 285 4.8
2006-05-10 06:44:26 51°13.601 2°56.091 107.7 1.2 288 4.9
2006-05-10 06:44:32 51°13.602 2°56.087 107.7 1.6 286 5.3
2006-05-10 06:44:37 51°13.603 2°56.082 107.9 1.7 287 6.1
2006-05-10 06:44:42 51°13.604 2°56.078 108.3 2.2 288 -999
2006-05-10 06:44:46 51°13.605 2°56.074 109 2.5 288 -999
2006-05-10 06:44:52 51°13.606 2°56.067 109.7 2.7 289 -999
2006-05-10 06:44:57 51°13.608 2°56.061 110.4 3 289 -999
2006-05-10 06:45:02 51°13.609 2°56.054 110.7 3.2 290 -999
2006-05-10 06:45:07 51°13.611 2°56.047 110.7 3.4 290 -999
2006-05-10 06:45:12 51°13.613 2°56.039 110.2 3.7 289 -999
2006-05-10 06:45:17 51°13.614 2°56.031 110.1 3.9 288 -999
2006-05-10 06:45:22 51°13.616 2°56.022 110.1 4.1 288 -999
2006-05-10 06:45:26 51°13.618 2°56.015 110.3 4.1 288 -999
2006-05-10 06:45:32 51°13.62 2°56.004 110.9 4.1 288 -999
2006-05-10 06:45:37 51°13.621 2°55.996 111.4 4.2 288 -999
2006-05-10 06:45:42 51°13.623 2°55.987 112.5 4.2 290 -999
2006-05-10 06:45:47 51°13.626 2°55.978 113.8 4.3 290 -999
2006-05-10 06:45:52 51°13.628 2°55.969 115.4 4.4 291 -999
2006-05-10 06:45:57 51°13.63 2°55.959 116.5 4.5 293 -999
2006-05-10 06:46:02 51°13.633 2°55.95 118.1 4.6 294 -999
2006-05-10 06:46:06 51°13.635 2°55.943 119.5 4.7 296 -999
2006-05-10 06:46:12 51°13.639 2°55.931 120.7 4.8 298 -999
2006-05-10 06:46:17 51°13.642 2°55.922 122.1 4.9 299 -999
2006-05-10 06:46:22 51°13.646 2°55.913 123.7 4.9 300 -999
2006-05-10 06:46:27 51°13.649 2°55.903 124.7 4.9 302 -999
2006-05-10 06:46:32 51°13.653 2°55.894 125.5 5 302 -999
2006-05-10 06:46:37 51°13.657 2°55.885 126.2 5 303 -999
2006-05-10 06:46:42 51°13.66 2°55.875 126.9 5.1 303 -999
2006-05-10 06:46:47 51°13.665 2°55.866 127.2 5 304 -999
2006-05-10 06:46:53 51°13.669 2°55.855 127.3 5.1 304 -999
2006-05-10 06:46:57 51°13.672 2°55.848 127.1 5.1 304 -999
2006-05-10 06:47:02 51°13.677 2°55.838 126.7 5.2 304 -999
2006-05-10 06:47:07 51°13.681 2°55.828 126.4 5.3 304 -999
2006-05-10 06:47:13 51°13.685 2°55.817 125.9 5 304 -999
2006-05-10 06:47:17 51°13.688 2°55.81 125.2 4.8 303 -999
2006-05-10 06:47:22 51°13.692 2°55.801 124.3 4.7 303 -999
2006-05-10 06:47:26 51°13.694 2°55.794 123 4.7 302 -999
2006-05-10 06:47:31 51°13.698 2°55.785 121.4 4.6 300 -999
2006-05-10 06:47:37 51°13.701 2°55.775 119.5 4.4 299 -999
2006-05-10 06:47:42 51°13.704 2°55.767 116.8 4.1 297 -999
2006-05-10 06:47:47 51°13.706 2°55.759 114.9 4 295 -999
2006-05-10 06:47:52 51°13.708 2°55.752 113 3.8 294 -999
2006-05-10 06:47:57 51°13.71 2°55.745 111.7 3.6 292 -999
2006-05-10 06:48:02 51°13.711 2°55.738 110.2 3.2 291 -999
2006-05-10 06:48:07 51°13.712 2°55.733 108.4 2.9 290 -999
2006-05-10 06:48:12 51°13.713 2°55.728 106.4 2.4 288 -999
2006-05-10 06:48:17 51°13.714 2°55.724 103.6 2 290 -999
2006-05-10 06:48:22 51°13.715 2°55.722 100.1 1.3 290 4.8
2006-05-10 06:48:26 51°13.715 2°55.721 96.1 0.7 304 4.8
2006-05-10 06:48:32 51°13.716 2°55.721 92.3 0.4 343 -999
2006-05-10 06:48:37 51°13.716 2°55.722 85.4 0.5 33 -999
2006-05-10 06:48:42 51°13.717 2°55.724 78.7 1 52 -999
2006-05-10 06:48:46 51°13.719 2°55.726 71.5 1.5 53 -999
2006-05-10 06:48:52 51°13.72 2°55.729 64.2 1.6 51 -999
2006-05-10 06:48:57 51°13.722 2°55.732 57.7 1.5 45 4.7
2006-05-10 06:49:02 51°13.723 2°55.734 53.8 1.4 47 10.5
2006-05-10 06:49:06 51°13.724 2°55.735 51.9 1.3 41 4.7
2006-05-10 06:49:12 51°13.725 2°55.737 49.1 1.2 43 4.8
2006-05-10 06:49:17 51°13.726 2°55.738 47.2 0.7 37 -999
2006-05-10 06:49:22 51°13.726 2°55.738 44.2 0.3 29 -999
2006-05-10 06:49:26 51°13.726 2°55.738 41.5 0.1 255 -999
2006-05-10 06:49:31 51°13.725 2°55.737 39.5 0.6 221 -999
2006-05-10 06:49:37 51°13.724 2°55.735 37.9 1.1 218 -999
2006-05-10 06:49:42 51°13.722 2°55.734 36.7 1.4 216 -999
2006-05-10 06:49:47 51°13.72 2°55.732 35.5 1.6 216 -999
2006-05-10 06:49:52 51°13.719 2°55.73 34.6 1.5 215 -999
2006-05-10 06:49:57 51°13.717 2°55.728 34 1.5 215 -999
2006-05-10 06:50:02 51°13.715 2°55.726 33.5 1.4 217 -999
2006-05-10 06:50:07 51°13.714 2°55.724 32.9 1.3 217 -999
2006-05-10 06:50:12 51°13.713 2°55.723 32.3 0.9 218 -999
2006-05-10 06:50:17 51°13.712 2°55.722 31.1 0.6 218 -999
2006-05-10 06:50:22 51°13.712 2°55.722 28.8 0.3 235 -999
2006-05-10 06:50:26 51°13.712 2°55.722 25.6 0.1 314 5.1
2006-05-10 06:50:32 51°13.713 2°55.722 21.8 0.4 1 -999
2006-05-10 06:50:37 51°13.714 2°55.722 17.7 0.7 5 -999
2006-05-10 06:50:42 51°13.716 2°55.722 13.3 1.2 4 -999
2006-05-10 06:50:47 51°13.719 2°55.722 7.2 1.8 -999 -999
2006-05-10 06:50:52 51°13.723 2°55.721 359.9 2.6 350 -999
2006-05-10 06:50:57 51°13.728 2°55.719 353.6 3.1 347 5.1
2006-05-10 06:51:02 51°13.733 2°55.717 349.5 3.6 342 4.9
2006-05-10 06:51:06 51°13.737 2°55.714 343.5 4.2 339 -999
2006-05-10 06:51:12 51°13.744 2°55.709 339.4 4.6 336 -999
2006-05-10 06:51:17 51°13.75 2°55.704 337.7 5 335 9.6
2006-05-10 06:51:22 51°13.757 2°55.699 337.5 5.4 336 9.5
2006-05-10 06:51:27 51°13.765 2°55.693 337.4 5.4 336 9.6
2006-05-10 06:51:32 51°13.772 2°55.687 337.2 5.9 335 9.7
2006-05-10 06:51:37 51°13.78 2°55.681 336.6 6.2 333 -999
2006-05-10 06:51:42 51°13.788 2°55.675 336.2 6.5 334 9.7
2006-05-10 06:51:47 51°13.797 2°55.668 337.1 6.7 335 9.8
2006-05-10 06:51:52 51°13.805 2°55.661 337.1 6.9 334 9.7
2006-05-10 06:51:57 51°13.814 2°55.655 336.7 7.1 334 9.7
2006-05-10 06:52:02 51°13.823 2°55.647 336.7 7.3 334 9.6
2006-05-10 06:52:06 51°13.83 2°55.641 336.7 7.5 333 9.6
2006-05-10 06:52:12 51°13.842 2°55.632 336.4 7.7 333 -999
2006-05-10 06:52:17 51°13.852 2°55.624 336.2 8 333 -999
2006-05-10 06:52:22 51°13.862 2°55.616 336.2 8.2 333 -999
2006-05-10 06:52:28 51°13.874 2°55.606 336.3 8.3 333 -999
2006-05-10 06:52:32 51°13.883 2°55.599 336.7 8.4 333 -999
2006-05-10 06:52:37 51°13.893 2°55.591 337.2 8.5 333 9.6
2006-05-10 06:52:42 51°13.904 2°55.582 337.8 8.7 334 9.6
2006-05-10 06:52:46 51°13.913 2°55.575 337.8 8.8 334 9.6
2006-05-10 06:52:51 51°13.924 2°55.567 337.8 8.9 334 9.5
2006-05-10 06:52:56 51°13.935 2°55.559 338.8 9 336 9.4
2006-05-10 06:53:02 51°13.949 2°55.549 339.1 9.1 335 9.5
2006-05-10 06:53:07 51°13.961 2°55.54 338.8 9.1 335 -999
2006-05-10 06:53:12 51°13.972 2°55.532 338.8 9.2 336 9.6
2006-05-10 06:53:17 51°13.984 2°55.524 339.2 9.2 336 9.6
2006-05-10 06:53:22 51°13.996 2°55.515 339.1 9.3 336 9.7
2006-05-10 06:53:26 51°14.005 2°55.508 338.3 9.3 335 9.7
2006-05-10 06:53:32 51°14.019 2°55.498 338.8 9.3 336 9.7
2006-05-10 06:53:37 51°14.03 2°55.489 339.3 9.3 335 9.7
2006-05-10 06:53:42 51°14.041 2°55.481 339 9.2 335 9.8
2006-05-10 06:53:45 51°14.048 2°55.475 338.6 9.2 334 9.8
2006-05-10 06:53:52 51°14.064 2°55.463 338.2 9.3 334 9.9
2006-05-10 06:53:57 51°14.076 2°55.454 337.7 9.3 334 -999
2006-05-10 06:54:02 51°14.088 2°55.445 338.1 9.3 335 -999
2006-05-10 06:54:07 51°14.1 2°55.436 338.5 9.4 335 -999
2006-05-10 06:54:12 51°14.112 2°55.427 338.5 9.3 334 -999
2006-05-10 06:54:17 51°14.123 2°55.418 337.9 9.3 333 -999
2006-05-10 06:54:22 51°14.134 2°55.408 336.9 9.3 333 -999
2006-05-10 06:54:26 51°14.143 2°55.4 335.7 9.3 331 -999
2006-05-10 06:54:31 51°14.154 2°55.389 334.9 9.3 331 -999
2006-05-10 06:54:37 51°14.167 2°55.377 334.5 9.3 331 -999
2006-05-10 06:54:42 51°14.178 2°55.367 333.8 9.3 329 9.9
2006-05-10 06:54:46 51°14.187 2°55.358 332.5 9.3 328 -999
2006-05-10 06:54:52 51°14.201 2°55.345 330 9.3 325 10
2006-05-10 06:54:56 51°14.209 2°55.335 328 9.3 323 -999
2006-05-10 06:55:02 51°14.221 2°55.32 327.2 9.3 323 -999
2006-05-10 06:55:06 51°14.229 2°55.31 325.2 9.3 320 -999
2006-05-10 06:55:13 51°14.243 2°55.29 322.9 9.3 318 -999
2006-05-10 06:55:17 51°14.25 2°55.279 320.5 9.3 316 -999
2006-05-10 06:55:22 51°14.258 2°55.263 318 9.2 314 -999
2006-05-10 06:55:26 51°14.265 2°55.251 316.1 9.2 312 10.3
2006-05-10 06:55:32 51°14.275 2°55.233 315 9.2 311 10
2006-05-10 06:55:37 51°14.283 2°55.217 314.1 9.2 310 9.5
2006-05-10 06:55:42 51°14.292 2°55.202 313.7 9.3 311 9.8
2006-05-10 06:55:46 51°14.299 2°55.189 313.6 9.3 311 9.8
2006-05-10 06:55:52 51°14.309 2°55.171 313.6 9.2 311 9.8
2006-05-10 06:55:56 51°14.315 2°55.158 313.6 9.3 310 9.7
2006-05-10 06:56:02 51°14.325 2°55.139 313.6 9.4 310 10
2006-05-10 06:56:07 51°14.334 2°55.123 313.6 9.5 311 10.1
2006-05-10 06:56:12 51°14.343 2°55.107 314.2 9.6 311 9.9
2006-05-10 06:56:17 51°14.352 2°55.091 314.7 9.6 311 10
2006-05-10 06:56:22 51°14.361 2°55.075 315.1 9.7 311 9.7
2006-05-10 06:56:26 51°14.368 2°55.061 314.3 9.8 310 9.7
2006-05-10 06:56:32 51°14.377 2°55.041 313 9.8 309 10
2006-05-10 06:56:36 51°14.384 2°55.027 311 9.9 306 9.4
2006-05-10 06:56:42 51°14.394 2°55.006 310.5 10 307 9.5
2006-05-10 06:56:47 51°14.402 2°54.987 311.9 10 308 9.7
2006-05-10 06:56:52 51°14.411 2°54.969 312.3 10.1 307 10.2
2006-05-10 06:56:57 51°14.418 2°54.951 312 10.3 306 9.9
2006-05-10 06:57:02 51°14.426 2°54.93 310.5 10.4 304 9.8
2006-05-10 06:57:06 51°14.432 2°54.914 308 10.6 302 9.9
2006-05-10 06:57:12 51°14.441 2°54.887 305.5 11 298 9.7
2006-05-10 06:57:17 51°14.447 2°54.865 302.9 11.2 296 9.8
2006-05-10 06:57:21 51°14.452 2°54.847 300 11.4 294 9.9
2006-05-10 06:57:25 51°14.457 2°54.828 299.4 11.5 294 9.8
2006-05-10 06:57:31 51°14.464 2°54.797 297.5 12 289 9.8
2006-05-10 06:57:37 51°14.47 2°54.767 295.7 12 289 9.8
2006-05-10 06:57:42 51°14.476 2°54.741 295.1 12.2 289 9.9
2006-05-10 06:57:46 51°14.48 2°54.72 293.8 12.4 288 9.8
2006-05-10 06:57:52 51°14.487 2°54.689 293.6 12.5 289 9.9
2006-05-10 06:57:56 51°14.492 2°54.668 294.4 12.7 290 10.5
2006-05-10 06:58:02 51°14.5 2°54.636 295.1 12.7 291 9.6
2006-05-10 06:58:07 51°14.507 2°54.61 296.3 12.8 293 9.6
2006-05-10 06:58:12 51°14.514 2°54.585 298.4 12.8 295 9.7
2006-05-10 06:58:17 51°14.523 2°54.559 300.1 12.7 296 10.1
2006-05-10 06:58:22 51°14.531 2°54.535 301.9 12.7 297 9.7
2006-05-10 06:58:26 51°14.537 2°54.515 303.1 12.8 298 10.2
2006-05-10 06:58:30 51°14.544 2°54.495 304.2 12.8 299 10.4
2006-05-10 06:58:37 51°14.557 2°54.461 305.5 12.8 301 10.6
2006-05-10 06:58:42 51°14.567 2°54.437 306.7 12.9 302 10.2
2006-05-10 06:58:46 51°14.575 2°54.418 307.7 12.9 303 10.6
2006-05-10 06:58:52 51°14.587 2°54.389 308.6 12.9 303 10.5
2006-05-10 06:58:57 51°14.597 2°54.366 309.1 12.9 304 10.4
2006-05-10 06:59:02 51°14.607 2°54.342 309.7 12.9 304 10.2
2006-05-10 06:59:06 51°14.615 2°54.323 309.7 12.9 303 10.1
2006-05-10 06:59:12 51°14.626 2°54.294 309.3 12.9 303 9.9
2006-05-10 06:59:17 51°14.635 2°54.27 309 12.9 303 9.7
2006-05-10 06:59:22 51°14.645 2°54.245 308.4 12.9 302 9.6
2006-05-10 06:59:26 51°14.652 2°54.225 307.7 12.9 301 10
2006-05-10 06:59:32 51°14.662 2°54.196 307 12.9 300 10.2
2006-05-10 06:59:37 51°14.671 2°54.171 306.3 12.9 300 9.9
2006-05-10 06:59:42 51°14.68 2°54.146 305.9 12.9 299 10
2006-05-10 06:59:47 51°14.689 2°54.121 305.3 12.9 299 10
2006-05-10 06:59:51 51°14.696 2°54.101 304.8 12.9 300 9.7
2006-05-10 06:59:57 51°14.708 2°54.074 307.3 12.8 304 9.6
2006-05-10 07:00:02 51°14.719 2°54.052 310.8 12.8 306 9.5
2006-05-10 07:00:07 51°14.73 2°54.031 314.4 12.6 310 9.5
2006-05-10 07:00:12 51°14.743 2°54.01 317.4 12.6 312 9.3
2006-05-10 07:00:17 51°14.755 2°53.991 319.3 12.5 314 9.5
2006-05-10 07:00:22 51°14.767 2°53.972 321.6 12.5 314 9.4
2006-05-10 07:00:27 51°14.78 2°53.952 322.8 12.5 316 9.2
2006-05-10 07:00:31 51°14.79 2°53.938 323.7 12.5 316 9.1
2006-05-10 07:00:37 51°14.805 2°53.915 324.4 12.4 317 9.1
2006-05-10 07:00:42 51°14.818 2°53.897 325.1 12.4 317 9
2006-05-10 07:00:46 51°14.828 2°53.882 325.6 12.4 318 9.1
2006-05-10 07:00:52 51°14.844 2°53.86 326.3 12.4 318 9.1
2006-05-10 07:00:56 51°14.854 2°53.845 326.5 12.5 318 9
2006-05-10 07:01:02 51°14.869 2°53.823 326.6 12.5 318 8.9
2006-05-10 07:01:06 51°14.88 2°53.808 326.3 12.5 317 8.9
2006-05-10 07:01:12 51°14.895 2°53.785 325.8 12.5 317 8.9
2006-05-10 07:01:16 51°14.904 2°53.769 324.7 12.5 315 9
2006-05-10 07:01:22 51°14.919 2°53.745 323.4 12.6 314 8.9
2006-05-10 07:01:26 51°14.928 2°53.729 322.3 12.6 313 8.9
2006-05-10 07:01:32 51°14.942 2°53.704 321.6 12.5 313 9
2006-05-10 07:01:36 51°14.951 2°53.688 320.9 12.6 312 8.9
2006-05-10 07:01:42 51°14.966 2°53.663 320.2 12.6 312 8.9
2006-05-10 07:01:47 51°14.978 2°53.642 319.8 12.6 312 8.9
2006-05-10 07:01:52 51°14.99 2°53.623 320.8 12.5 314 9.1
2006-05-10 07:01:56 51°15 2°53.608 322.6 12.5 316 8.9
2006-05-10 07:02:02 51°15.016 2°53.586 324.4 12.4 318 9
2006-05-10 07:02:07 51°15.029 2°53.569 327 12.5 320 9.3
2006-05-10 07:02:12 51°15.043 2°53.552 329 12.5 322 9
2006-05-10 07:02:17 51°15.057 2°53.535 330.3 12.5 323 9.2
2006-05-10 07:02:22 51°15.07 2°53.519 331.4 12.5 323 9.2
2006-05-10 07:02:26 51°15.081 2°53.505 332.2 12.5 324 9.2
2006-05-10 07:02:30 51°15.092 2°53.492 332.4 12.5 323 9.3
2006-05-10 07:02:37 51°15.112 2°53.468 331.9 12.4 323 9.2
2006-05-10 07:02:42 51°15.125 2°53.451 330.4 12.5 321 9.4
2006-05-10 07:02:46 51°15.135 2°53.437 329.3 12.5 319 9.3
2006-05-10 07:02:52 51°15.151 2°53.414 327.3 12.6 318 9.4
2006-05-10 07:02:57 51°15.163 2°53.395 326.1 12.6 317 9.4
2006-05-10 07:03:02 51°15.176 2°53.375 325.1 12.6 316 9.5
2006-05-10 07:03:06 51°15.186 2°53.36 324.5 12.6 316 9.5
2006-05-10 07:03:12 51°15.201 2°53.336 324.4 12.6 316 9.5
2006-05-10 07:03:17 51°15.214 2°53.316 324 12.7 316 9.5
2006-05-10 07:03:22 51°15.226 2°53.297 324.2 12.7 316 9.6
2006-05-10 07:03:27 51°15.239 2°53.277 324.3 12.7 316 9.7
2006-05-10 07:03:32 51°15.252 2°53.258 324.5 12.7 316 9.7
2006-05-10 07:03:36 51°15.262 2°53.243 324.7 12.6 317 9.7
2006-05-10 07:03:42 51°15.278 2°53.22 325.4 12.6 318 9.6
2006-05-10 07:03:47 51°15.291 2°53.203 326.3 12.6 319 9.9
2006-05-10 07:03:52 51°15.304 2°53.185 327.8 12.6 320 9.9
2006-05-10 07:03:56 51°15.315 2°53.17 328.8 12.6 321 9.9
2006-05-10 07:04:00 51°15.326 2°53.156 329.6 12.6 321 9.8
2006-05-10 07:04:05 51°15.339 2°53.139 329.8 12.6 321 9.9
2006-05-10 07:04:10 51°15.352 2°53.121 329.8 12.6 321 10
2006-05-10 07:04:17 51°15.371 2°53.097 329.7 12.6 320 10.1
2006-05-10 07:04:22 51°15.385 2°53.079 329.5 12.6 320 10.1
2006-05-10 07:04:27 51°15.399 2°53.06 328.7 12.6 319 10.1
2006-05-10 07:04:31 51°15.409 2°53.046 327.7 12.6 318 10.2
2006-05-10 07:04:37 51°15.425 2°53.023 327.2 12.7 318 10.2
2006-05-10 07:04:42 51°15.437 2°53.003 325.8 12.8 316 10.2
2006-05-10 07:04:46 51°15.447 2°52.987 324.9 12.7 316 10.3
2006-05-10 07:04:50 51°15.457 2°52.972 324.3 12.7 315 10.3
2006-05-10 07:04:56 51°15.471 2°52.947 323.7 12.7 314 10.5
2006-05-10 07:05:01 51°15.483 2°52.927 323.1 12.8 313 10.5
2006-05-10 07:05:07 51°15.497 2°52.901 321.7 12.8 312 10.5
2006-05-10 07:05:12 51°15.508 2°52.88 320.3 12.8 310 10.6
2006-05-10 07:05:16 51°15.518 2°52.862 319.2 12.8 310 10.6
2006-05-10 07:05:22 51°15.53 2°52.835 317.9 12.8 308 10.7
2006-05-10 07:05:27 51°15.54 2°52.811 316.1 12.9 306 10.8
2006-05-10 07:05:32 51°15.549 2°52.787 313.2 12.9 302 10.8
2006-05-10 07:05:37 51°15.558 2°52.762 309.5 13 299 10.9
2006-05-10 07:05:42 51°15.566 2°52.735 306.3 13 296 10.8
2006-05-10 07:05:47 51°15.573 2°52.709 303.5 13 295 11
2006-05-10 07:05:52 51°15.579 2°52.682 301.5 13.1 291 11
2006-05-10 07:05:56 51°15.583 2°52.661 298.3 13.1 289 11.1
2006-05-10 07:06:02 51°15.589 2°52.627 295.4 13.2 286 11.1
2006-05-10 07:06:07 51°15.594 2°52.598 292.9 13.2 284 11.1
2006-05-10 07:06:12 51°15.597 2°52.57 290.6 13.3 282 11.1
2006-05-10 07:06:16 51°15.6 2°52.546 288.1 13.4 280 11.2
2006-05-10 07:06:20 51°15.603 2°52.523 286.2 13.2 279 11.1
2006-05-10 07:06:26 51°15.605 2°52.489 285.4 13.3 279 11.4
2006-05-10 07:06:32 51°15.608 2°52.454 283.8 13.4 278 11.3
2006-05-10 07:06:36 51°15.61 2°52.43 283.2 13.4 277 11.4
2006-05-10 07:06:42 51°15.612 2°52.395 282.8 13.4 277 11.4
2006-05-10 07:06:47 51°15.615 2°52.365 282.3 13.4 277 11.5
2006-05-10 07:06:52 51°15.617 2°52.335 282.4 13.4 277 11.5
2006-05-10 07:06:56 51°15.619 2°52.312 282.3 13.5 278 11.5
2006-05-10 07:07:02 51°15.622 2°52.277 282.5 13.5 277 11.6
2006-05-10 07:07:07 51°15.625 2°52.248 283.5 13.4 280 11.6
2006-05-10 07:07:12 51°15.628 2°52.218 285.2 13.5 280 11.5
2006-05-10 07:07:17 51°15.632 2°52.189 285.2 13.5 279 11.6
2006-05-10 07:07:22 51°15.635 2°52.16 285.3 13.4 280 11.7
2006-05-10 07:07:26 51°15.638 2°52.136 286.2 13.5 280 11.7
2006-05-10 07:07:30 51°15.64 2°52.113 285.6 13.5 280 11.9
2006-05-10 07:07:37 51°15.645 2°52.071 285.6 13.4 279 11.8
2006-05-10 07:07:42 51°15.648 2°52.042 285.4 13.5 280 11.8
2006-05-10 07:07:46 51°15.65 2°52.019 285.5 13.5 280 11.9
2006-05-10 07:07:52 51°15.654 2°51.984 285.6 13.5 280 11.9
2006-05-10 07:07:57 51°15.658 2°51.954 285.9 13.5 280 12
2006-05-10 07:08:02 51°15.66 2°51.925 286.2 13.5 280 12
2006-05-10 07:08:06 51°15.663 2°51.901 285.9 13.5 280 12
2006-05-10 07:08:12 51°15.667 2°51.866 285.7 13.5 280 12
2006-05-10 07:08:17 51°15.671 2°51.837 285.8 13.5 280 12.1
2006-05-10 07:08:22 51°15.673 2°51.808 285.6 13.4 280 12.2
2006-05-10 07:08:26 51°15.676 2°51.785 285.9 13.4 281 12
2006-05-10 07:08:32 51°15.68 2°51.749 286.1 13.4 280 12.1
2006-05-10 07:08:37 51°15.683 2°51.72 285.9 13.4 280 12.2
2006-05-10 07:08:42 51°15.686 2°51.691 285.5 13.5 280 12.1
2006-05-10 07:08:46 51°15.688 2°51.668 285.3 13.4 279 12.1
2006-05-10 07:08:52 51°15.692 2°51.632 285.2 13.5 279 12.3
2006-05-10 07:08:57 51°15.695 2°51.602 284.7 13.4 279 12.2
2006-05-10 07:09:02 51°15.698 2°51.574 285.3 13.4 280 12.2
2006-05-10 07:09:07 51°15.701 2°51.544 285.5 13.4 280 12.1
2006-05-10 07:09:12 51°15.705 2°51.515 285.3 13.4 279 12.3
2006-05-10 07:09:16 51°15.707 2°51.492 285.3 13.4 280 12.3
2006-05-10 07:09:22 51°15.711 2°51.456 285.4 13.4 280 12.2
2006-05-10 07:09:27 51°15.714 2°51.427 285.2 13.4 280 12.3
2006-05-10 07:09:32 51°15.717 2°51.398 285.2 13.4 280 12.3
2006-05-10 07:09:37 51°15.72 2°51.369 285 13.5 279 12.4
2006-05-10 07:09:42 51°15.723 2°51.339 284.5 13.4 279 12.3
2006-05-10 07:09:47 51°15.726 2°51.31 284.6 13.4 279 12.4
2006-05-10 07:09:52 51°15.729 2°51.281 285 13.4 280 12.4
2006-05-10 07:09:57 51°15.733 2°51.252 285.4 13.4 280 12.5
2006-05-10 07:10:02 51°15.736 2°51.223 285.7 13.4 279 12.4
2006-05-10 07:10:06 51°15.739 2°51.199 285.5 13.4 280 12.4
2006-05-10 07:10:12 51°15.743 2°51.165 285.8 13.4 281 12.4
2006-05-10 07:10:16 51°15.745 2°51.142 286.1 13.4 280 12.4
2006-05-10 07:10:22 51°15.75 2°51.107 285.7 13.4 280 12.5
2006-05-10 07:10:26 51°15.752 2°51.083 285.6 13.4 279 12.4
2006-05-10 07:10:32 51°15.756 2°51.048 285 13.4 279 12.5
2006-05-10 07:10:36 51°15.758 2°51.025 284.9 13.4 280 12.4
2006-05-10 07:10:42 51°15.761 2°50.99 284.7 13.3 279 12.5
2006-05-10 07:10:47 51°15.764 2°50.96 284.8 13.3 279 12.4
2006-05-10 07:10:52 51°15.768 2°50.932 284.6 13.3 279 12.5
2006-05-10 07:10:56 51°15.77 2°50.909 285.1 13.2 279 12.5
2006-05-10 07:11:02 51°15.773 2°50.874 285 13.2 279 12.5
2006-05-10 07:11:07 51°15.776 2°50.845 284.7 13.1 279 12.5
2006-05-10 07:11:12 51°15.779 2°50.817 284.9 13.1 279 12.5
2006-05-10 07:11:17 51°15.782 2°50.789 285.2 13 279 12.5
2006-05-10 07:11:22 51°15.785 2°50.76 285.7 13 280 12.5
2006-05-10 07:11:26 51°15.787 2°50.737 285.8 12.9 280 12.6
2006-05-10 07:11:30 51°15.789 2°50.715 285.5 12.9 279 12.6
2006-05-10 07:11:37 51°15.793 2°50.676 285.3 12.9 279 12.5
2006-05-10 07:11:42 51°15.796 2°50.648 285.4 12.9 280 12.6
2006-05-10 07:11:47 51°15.799 2°50.619 285.7 12.8 279 12.5
2006-05-10 07:11:52 51°15.802 2°50.591 285.2 12.8 279 12.6
2006-05-10 07:11:56 51°15.805 2°50.569 285.3 12.8 279 12.6
2006-05-10 07:12:02 51°15.809 2°50.535 285.6 12.9 280 12.7
2006-05-10 07:12:06 51°15.811 2°50.513 285.4 12.9 280 12.6
2006-05-10 07:12:12 51°15.815 2°50.479 285.7 12.8 280 12.5
2006-05-10 07:12:17 51°15.818 2°50.451 285.9 12.8 280 12.5
2006-05-10 07:12:21 51°15.82 2°50.429 285.3 12.9 279 12.6
2006-05-10 07:12:27 51°15.823 2°50.396 285 12.8 279 12.5
2006-05-10 07:12:32 51°15.826 2°50.367 284.8 12.8 278 12.5
2006-05-10 07:12:37 51°15.829 2°50.34 284.8 12.9 279 12.5
2006-05-10 07:12:42 51°15.832 2°50.311 284.5 12.9 279 12.4
2006-05-10 07:12:47 51°15.834 2°50.283 284.7 12.8 279 12.3
2006-05-10 07:12:52 51°15.838 2°50.255 285.2 12.9 279 12.1
2006-05-10 07:12:56 51°15.84 2°50.233 285.5 12.9 280 12
2006-05-10 07:13:02 51°15.844 2°50.199 285.3 12.9 280 11.8
2006-05-10 07:13:07 51°15.846 2°50.171 285.5 12.8 279 11.7
2006-05-10 07:13:12 51°15.849 2°50.143 285.2 12.8 279 11.5
2006-05-10 07:13:17 51°15.852 2°50.115 284.5 12.8 278 11.3
2006-05-10 07:13:22 51°15.855 2°50.087 284.8 12.8 278 11.2
2006-05-10 07:13:27 51°15.858 2°50.059 284.1 12.8 280 11.1
2006-05-10 07:13:31 51°15.86 2°50.037 284.5 12.7 278 11
2006-05-10 07:13:37 51°15.863 2°50.004 284.9 12.7 280 10.9
2006-05-10 07:13:42 51°15.867 2°49.976 285.2 12.7 279 10.8
2006-05-10 07:13:46 51°15.869 2°49.954 285.9 12.7 280 10.7
2006-05-10 07:13:52 51°15.873 2°49.92 285.9 12.7 280 10.6
2006-05-10 07:13:56 51°15.874 2°49.898 285.3 12.8 279 10.5
2006-05-10 07:14:02 51°15.877 2°49.864 284.5 12.8 278 10.4
2006-05-10 07:14:06 51°15.88 2°49.841 283.8 12.9 278 10.4
2006-05-10 07:14:12 51°15.883 2°49.807 283.9 12.9 278 10.4
2006-05-10 07:14:16 51°15.885 2°49.785 284.5 12.9 279 10.3
2006-05-10 07:14:22 51°15.888 2°49.751 284.9 12.9 279 10.3
2006-05-10 07:14:26 51°15.891 2°49.728 285 13 280 10.3
2006-05-10 07:14:32 51°15.894 2°49.694 285.4 13 280 10.2
2006-05-10 07:14:36 51°15.897 2°49.672 285.6 13 279 10.3
2006-05-10 07:14:42 51°15.9 2°49.638 285.8 13 280 10.3
2006-05-10 07:14:46 51°15.903 2°49.615 285.9 13.1 280 10.2
2006-05-10 07:14:52 51°15.907 2°49.581 286.2 13.1 281 10.2
2006-05-10 07:14:56 51°15.909 2°49.558 286.4 13 279 10.3
2006-05-10 07:15:02 51°15.912 2°49.524 286.1 13.1 279 10.3
2006-05-10 07:15:06 51°15.914 2°49.501 284.9 13.1 278 10.3
2006-05-10 07:15:12 51°15.917 2°49.467 284.6 13.1 278 10.4
2006-05-10 07:15:16 51°15.919 2°49.443 284.8 13.1 278 10.4
2006-05-10 07:15:22 51°15.922 2°49.408 284.5 13.1 278 10.4
2006-05-10 07:15:27 51°15.925 2°49.379 284.3 13.2 278 10.5
2006-05-10 07:15:32 51°15.927 2°49.351 284.3 13.2 278 10.6
2006-05-10 07:15:36 51°15.93 2°49.328 285.2 13.2 280 10.7
2006-05-10 07:15:42 51°15.934 2°49.294 285.6 13.2 279 10.7
2006-05-10 07:15:47 51°15.937 2°49.264 285.8 13.2 280 10.8
2006-05-10 07:15:52 51°15.94 2°49.236 286.3 13.2 280 11
2006-05-10 07:15:57 51°15.943 2°49.207 286 13.2 279 11
2006-05-10 07:16:02 51°15.946 2°49.179 285.7 13.2 279 11.1
2006-05-10 07:16:06 51°15.948 2°49.156 285.9 13.2 280 11.2
2006-05-10 07:16:10 51°15.951 2°49.133 285.8 13.2 280 11.3
2006-05-10 07:16:17 51°15.954 2°49.092 285.2 13.3 278 11.4
2006-05-10 07:16:22 51°15.957 2°49.063 285 13.3 279 11.4
2006-05-10 07:16:26 51°15.959 2°49.04 285 13.2 278 11.6
2006-05-10 07:16:32 51°15.962 2°49.005 284.7 13.2 278 11.7
2006-05-10 07:16:36 51°15.964 2°48.982 284.5 13.2 279 11.8
2006-05-10 07:16:42 51°15.968 2°48.947 284.8 13.3 278 11.9
2006-05-10 07:16:46 51°15.97 2°48.924 285.2 13.2 279 12
2006-05-10 07:16:52 51°15.974 2°48.889 285.6 13.2 279 12.1
2006-05-10 07:16:56 51°15.976 2°48.866 285.6 13.3 279 12.2
2006-05-10 07:17:02 51°15.979 2°48.831 285.6 13.3 279 12.3
2006-05-10 07:17:06 51°15.982 2°48.808 285.6 13.3 279 12.4
2006-05-10 07:17:12 51°15.986 2°48.773 285.8 13.3 280 12.6
2006-05-10 07:17:16 51°15.988 2°48.751 286.4 13.3 280 12.6
2006-05-10 07:17:22 51°15.992 2°48.716 286.6 13.3 281 12.8
2006-05-10 07:17:26 51°15.995 2°48.693 287.1 13.3 281 13.1
2006-05-10 07:17:32 51°15.999 2°48.658 287.4 13.3 280 13.3
2006-05-10 07:17:36 51°16.002 2°48.635 287 13.3 280 13.5
2006-05-10 07:17:42 51°16.005 2°48.6 285.8 13.3 278 13.7
2006-05-10 07:17:46 51°16.007 2°48.576 285.2 13.3 279 14
2006-05-10 07:17:52 51°16.01 2°48.54 285 13.3 278 14
2006-05-10 07:17:57 51°16.012 2°48.511 285 13.3 278 14.1
2006-05-10 07:18:02 51°16.015 2°48.482 284.8 13.3 278 14.2
2006-05-10 07:18:05 51°16.017 2°48.465 284.9 13.4 278 14.3
2006-05-10 07:18:12 51°16.021 2°48.424 284.5 13.4 278 14.4
2006-05-10 07:18:16 51°16.023 2°48.401 285.2 13.4 278 14.5
2006-05-10 07:18:22 51°16.026 2°48.364 285.3 13.3 279 14.5
2006-05-10 07:18:27 51°16.029 2°48.336 285.4 13.3 279 14.7
2006-05-10 07:18:32 51°16.032 2°48.308 285.6 13.4 279 14.7
2006-05-10 07:18:37 51°16.035 2°48.278 285.2 13.3 278 14.9
2006-05-10 07:18:42 51°16.037 2°48.249 285.4 13.4 277 15
2006-05-10 07:18:47 51°16.038 2°48.219 284.3 13.3 275 15
2006-05-10 07:18:52 51°16.038 2°48.19 281.5 13.4 272 15.1
2006-05-10 07:18:56 51°16.038 2°48.166 278.9 13.4 269 15.1
2006-05-10 07:19:02 51°16.036 2°48.131 274.8 13.4 265 15.1
2006-05-10 07:19:07 51°16.033 2°48.101 272.1 13.4 264 15.2
2006-05-10 07:19:12 51°16.03 2°48.072 268 13.5 259 15.2
2006-05-10 07:19:17 51°16.028 2°48.042 266.3 13.4 263 15.2
2006-05-10 07:19:22 51°16.028 2°48.012 268.3 13.4 263 15.2
2006-05-10 07:19:27 51°16.028 2°47.983 272.4 13.3 271 15.2
2006-05-10 07:19:31 51°16.03 2°47.96 276.9 13.2 275 15.2
2006-05-10 07:19:37 51°16.034 2°47.925 283.3 13.1 279 15.3
2006-05-10 07:19:42 51°16.038 2°47.897 287.4 13.1 281 15.4
2006-05-10 07:19:46 51°16.041 2°47.875 289 13.2 283 15.4
2006-05-10 07:19:52 51°16.047 2°47.841 290.3 13.2 284 15.5
2006-05-10 07:19:57 51°16.052 2°47.812 291.2 13.2 285 15.5
2006-05-10 07:20:02 51°16.056 2°47.785 292.6 13.2 285 15.6
2006-05-10 07:20:06 51°16.059 2°47.763 292.3 13.2 283 15.5
2006-05-10 07:20:12 51°16.064 2°47.728 290.3 13.2 283 15.6
2006-05-10 07:20:17 51°16.068 2°47.7 290.1 13.2 283 15.6
2006-05-10 07:20:22 51°16.072 2°47.671 289.9 13.3 283 15.6
2006-05-10 07:20:26 51°16.076 2°47.648 289.4 13.3 282 15.6
2006-05-10 07:20:32 51°16.081 2°47.613 289.5 13.3 283 15.6
2006-05-10 07:20:37 51°16.085 2°47.585 289.2 13.3 282 15.5
2006-05-10 07:20:42 51°16.089 2°47.556 289.4 13.2 283 15.5
2006-05-10 07:20:46 51°16.092 2°47.534 289.5 13.3 283 15.4
2006-05-10 07:20:52 51°16.098 2°47.5 290.4 13.3 285 15.5
2006-05-10 07:20:57 51°16.103 2°47.471 291.1 13.2 285 15.6
2006-05-10 07:21:02 51°16.108 2°47.444 291.8 13.2 285 15.6
2006-05-10 07:21:06 51°16.111 2°47.422 291.8 13.2 284 15.4
2006-05-10 07:21:12 51°16.116 2°47.388 290.7 13.2 284 15.5
2006-05-10 07:21:17 51°16.121 2°47.359 290.5 13.2 284 15.5
2006-05-10 07:21:22 51°16.126 2°47.331 290.3 13.3 284 15.3
2006-05-10 07:21:27 51°16.13 2°47.303 290.5 13.2 284 15.2
2006-05-10 07:21:32 51°16.135 2°47.275 290.6 13.2 284 15.1
2006-05-10 07:21:37 51°16.139 2°47.246 291 13.2 285 14.8
2006-05-10 07:21:42 51°16.143 2°47.218 290.3 13.2 285 14.7
2006-05-10 07:21:47 51°16.147 2°47.19 290.3 13.2 283 14.5
2006-05-10 07:21:51 51°16.151 2°47.166 290.1 13.2 283 13.9
2006-05-10 07:21:57 51°16.156 2°47.132 289.8 13.1 283 13.6
2006-05-10 07:22:02 51°16.16 2°47.105 289.9 13.1 283 13.7
2006-05-10 07:22:07 51°16.164 2°47.076 290.2 13.2 283 13.8
2006-05-10 07:22:12 51°16.168 2°47.048 290.3 13.1 284 13.7
2006-05-10 07:22:17 51°16.172 2°47.02 290.4 13.1 284 13.5
2006-05-10 07:22:22 51°16.176 2°46.992 290.1 13.1 284 13.4
2006-05-10 07:22:27 51°16.18 2°46.963 290.1 13.2 284 13.5
2006-05-10 07:22:31 51°16.183 2°46.941 289.5 13.1 282 13.4
2006-05-10 07:22:37 51°16.188 2°46.906 289.3 13.1 283 13.2
2006-05-10 07:22:42 51°16.192 2°46.878 289.6 13.1 283 13.2
2006-05-10 07:22:46 51°16.196 2°46.856 290.3 13.1 283 13.1
2006-05-10 07:22:52 51°16.201 2°46.822 290.3 13.1 283 13.1
2006-05-10 07:22:57 51°16.205 2°46.794 290.4 13 284 12.7
2006-05-10 07:23:02 51°16.21 2°46.766 290.9 13 285 11.8
2006-05-10 07:23:06 51°16.213 2°46.744 291 13 284 11.2
2006-05-10 07:23:12 51°16.218 2°46.71 290.9 13 283 11.2
2006-05-10 07:23:17 51°16.222 2°46.683 290.4 12.9 283 11.1
2006-05-10 07:23:22 51°16.227 2°46.654 290 13 283 11
2006-05-10 07:23:26 51°16.23 2°46.632 290.2 13 283 11.1
2006-05-10 07:23:32 51°16.234 2°46.599 289.9 13 283 11.1
2006-05-10 07:23:37 51°16.239 2°46.57 290.4 13 284 11
2006-05-10 07:23:42 51°16.242 2°46.542 289.8 13 283 10.8
2006-05-10 07:23:46 51°16.246 2°46.52 290.1 12.9 283 10.6
2006-05-10 07:23:52 51°16.251 2°46.487 290.1 12.9 283 10.4
2006-05-10 07:23:57 51°16.255 2°46.459 290.4 12.9 283 9.9
2006-05-10 07:24:02 51°16.259 2°46.431 290.5 12.9 283 9.9
2006-05-10 07:24:07 51°16.263 2°46.403 290.3 12.9 283 9.8
2006-05-10 07:24:12 51°16.266 2°46.376 289.9 12.8 282 9.6
2006-05-10 07:24:17 51°16.27 2°46.347 289.2 12.9 282 9.8
2006-05-10 07:24:22 51°16.274 2°46.32 288.8 12.9 283 10
2006-05-10 07:24:25 51°16.276 2°46.304 289.5 12.9 283 10
2006-05-10 07:24:32 51°16.282 2°46.264 290.2 12.9 283 10.1
2006-05-10 07:24:36 51°16.286 2°46.242 290.6 12.9 284 10
2006-05-10 07:24:42 51°16.291 2°46.209 290.5 12.9 283 9.4
2006-05-10 07:24:46 51°16.294 2°46.186 290.8 12.9 284 9.4
2006-05-10 07:24:52 51°16.299 2°46.153 291.2 12.9 284 9.5
2006-05-10 07:24:56 51°16.302 2°46.131 290.9 12.8 284 9.6
2006-05-10 07:25:02 51°16.307 2°46.098 290.7 12.9 283 9.5
2006-05-10 07:25:06 51°16.31 2°46.076 290.1 12.9 283 9.6
2006-05-10 07:25:12 51°16.315 2°46.042 290.5 12.9 284 9.7
2006-05-10 07:25:16 51°16.319 2°46.02 290.5 12.9 283 9.8
2006-05-10 07:25:22 51°16.324 2°45.987 291.2 13 283 9.8
2006-05-10 07:25:27 51°16.329 2°45.959 291 12.9 284 9.7
2006-05-10 07:25:32 51°16.332 2°45.93 291 12.9 285 9.7
2006-05-10 07:25:36 51°16.336 2°45.908 290.5 13 284 9.7
2006-05-10 07:25:42 51°16.342 2°45.876 291.5 12.9 285 9.9
2006-05-10 07:25:47 51°16.346 2°45.848 291.7 12.9 284 9.8
2006-05-10 07:25:52 51°16.35 2°45.82 291.3 13 284 9.9
2006-05-10 07:25:57 51°16.356 2°45.793 291.7 13 285 10.1
2006-05-10 07:26:02 51°16.361 2°45.766 293.2 12.9 287 10.1
2006-05-10 07:26:06 51°16.366 2°45.744 295.6 12.9 289 10.2
2006-05-10 07:26:10 51°16.372 2°45.723 298.3 12.8 292 10.1
2006-05-10 07:26:17 51°16.381 2°45.686 300.6 12.8 293 10.1
2006-05-10 07:26:22 51°16.388 2°45.66 300.4 12.9 291 10.3
2006-05-10 07:26:26 51°16.393 2°45.639 300.7 12.9 292 10.5
2006-05-10 07:26:32 51°16.402 2°45.608 300.4 12.9 292 10.7
2006-05-10 07:26:37 51°16.409 2°45.581 300.7 12.9 293 10.8
2006-05-10 07:26:42 51°16.415 2°45.555 300.5 12.9 292 11.1
2006-05-10 07:26:46 51°16.42 2°45.535 300.4 12.9 292 11.1
2006-05-10 07:26:52 51°16.429 2°45.502 300.7 12.8 292 11
2006-05-10 07:26:57 51°16.435 2°45.476 300.2 12.9 292 11
2006-05-10 07:27:02 51°16.442 2°45.449 300.4 12.9 292 11
2006-05-10 07:27:07 51°16.449 2°45.423 300.5 12.9 292 10.9
2006-05-10 07:27:12 51°16.456 2°45.397 300.5 12.8 293 10.8
2006-05-10 07:27:17 51°16.464 2°45.372 301.8 12.7 296 10.8
2006-05-10 07:27:22 51°16.472 2°45.348 304.1 12.7 298 10.9
2006-05-10 07:27:25 51°16.478 2°45.333 306.7 12.7 300 11.2
2006-05-10 07:27:32 51°16.491 2°45.3 310 12.6 302 11.3
2006-05-10 07:27:36 51°16.498 2°45.281 311 12.6 302 11.5
2006-05-10 07:27:42 51°16.509 2°45.252 310.8 12.7 302 11.9
2006-05-10 07:27:46 51°16.517 2°45.232 310.7 12.7 302 12
2006-05-10 07:27:52 51°16.528 2°45.204 310.9 12.7 302 12.2
2006-05-10 07:27:56 51°16.535 2°45.185 311.2 12.7 302 12.2
2006-05-10 07:28:02 51°16.545 2°45.156 310.3 12.7 300 12.1
2006-05-10 07:28:06 51°16.553 2°45.136 309.4 12.8 300 12
2006-05-10 07:28:12 51°16.563 2°45.106 309.1 12.8 300 11.9
2006-05-10 07:28:17 51°16.573 2°45.082 309.3 12.7 301 11.6
2006-05-10 07:28:22 51°16.582 2°45.059 309.7 12.8 302 11.9
2006-05-10 07:28:25 51°16.588 2°45.044 310.4 12.7 302 12.2
2006-05-10 07:28:32 51°16.601 2°45.011 311.2 12.7 303 11.4
2006-05-10 07:28:36 51°16.608 2°44.992 311.3 12.7 301 11.9
2006-05-10 07:28:42 51°16.62 2°44.963 310.6 12.7 302 11.6
2006-05-10 07:28:47 51°16.629 2°44.939 310.6 12.7 302 11
2006-05-10 07:28:52 51°16.638 2°44.916 310.7 12.7 302 11.7
2006-05-10 07:28:57 51°16.647 2°44.891 310.9 12.6 302 11.7
2006-05-10 07:29:02 51°16.656 2°44.867 309.9 12.8 301 11.8
2006-05-10 07:29:06 51°16.664 2°44.848 309.5 12.7 300 12
2006-05-10 07:29:10 51°16.671 2°44.829 309.8 12.8 301 12.1
2006-05-10 07:29:17 51°16.683 2°44.794 309.8 12.8 301 12.3
2006-05-10 07:29:22 51°16.693 2°44.77 309.7 12.8 301 12.5
2006-05-10 07:29:26 51°16.7 2°44.751 310.1 12.9 302 12.7
2006-05-10 07:29:32 51°16.711 2°44.722 310.4 12.9 302 12.9
2006-05-10 07:29:37 51°16.721 2°44.697 310.3 12.8 301 12.9
2006-05-10 07:29:42 51°16.73 2°44.673 310.5 12.9 302 13.1
2006-05-10 07:29:47 51°16.739 2°44.648 310 12.9 300 13.2
2006-05-10 07:29:51 51°16.746 2°44.628 309.8 12.9 301 13.4
2006-05-10 07:29:57 51°16.758 2°44.599 309.4 13 300 13.4
2006-05-10 07:30:02 51°16.767 2°44.575 309.6 13 301 13.3
2006-05-10 07:30:06 51°16.774 2°44.555 310.2 13 301 13.5
2006-05-10 07:30:12 51°16.785 2°44.526 310.4 13 301 13.7
2006-05-10 07:30:17 51°16.794 2°44.501 310.4 13 301 13.8
2006-05-10 07:30:22 51°16.803 2°44.476 309.8 13 300 14.2
2006-05-10 07:30:26 51°16.811 2°44.456 309.2 13 300 14.5
2006-05-10 07:30:32 51°16.821 2°44.425 308.3 13.1 298 14.6
2006-05-10 07:30:37 51°16.829 2°44.4 308.1 13 299 14.9
2006-05-10 07:30:42 51°16.839 2°44.375 309.3 13 300 15
2006-05-10 07:30:46 51°16.846 2°44.356 309.9 13 300 15.2
2006-05-10 07:30:52 51°16.857 2°44.326 310.5 13 301 15.2
2006-05-10 07:30:57 51°16.867 2°44.301 310.6 13 300 15.3
2006-05-10 07:31:02 51°16.875 2°44.276 310.3 13 300 15.4
2006-05-10 07:31:07 51°16.885 2°44.251 310 13 300 15.5
2006-05-10 07:31:12 51°16.893 2°44.226 310 13.1 300 15.5
2006-05-10 07:31:17 51°16.902 2°44.202 310.1 13.1 300 15.6
2006-05-10 07:31:22 51°16.912 2°44.176 310.2 13 300 15.5
2006-05-10 07:31:25 51°16.917 2°44.162 310.4 13 301 15.5
2006-05-10 07:31:32 51°16.93 2°44.126 309.9 13.1 300 15.6
2006-05-10 07:31:36 51°16.937 2°44.106 309.8 13.1 300 15.5
2006-05-10 07:31:42 51°16.948 2°44.076 309.7 13.1 300 15.6
2006-05-10 07:31:47 51°16.957 2°44.051 309.9 13.1 300 15.6
2006-05-10 07:31:52 51°16.966 2°44.025 310.3 13.1 300 15.5
2006-05-10 07:31:56 51°16.973 2°44.005 310 13.2 300 15.9
2006-05-10 07:32:02 51°16.984 2°43.976 310.3 13.1 301 15.5
2006-05-10 07:32:07 51°16.994 2°43.951 310.3 13.1 300 15.1
2006-05-10 07:32:12 51°17.002 2°43.926 310.5 13.1 301 15
2006-05-10 07:32:16 51°17.01 2°43.906 310.4 13.1 301 14.8
2006-05-10 07:32:22 51°17.021 2°43.876 310.5 13.1 300 14.6
2006-05-10 07:32:26 51°17.028 2°43.856 310.6 13.1 301 14.4
2006-05-10 07:32:32 51°17.039 2°43.826 310.3 13 300 14.8
2006-05-10 07:32:37 51°17.049 2°43.801 310.1 13.1 300 14.9
2006-05-10 07:32:42 51°17.058 2°43.776 310 13.1 300 14.8
2006-05-10 07:32:46 51°17.065 2°43.756 310.1 13.1 301 14.9
2006-05-10 07:32:52 51°17.077 2°43.728 310.6 13 303 14.9
2006-05-10 07:32:57 51°17.088 2°43.704 313.1 12.9 305 14.7
2006-05-10 07:33:02 51°17.099 2°43.682 315.7 12.9 307 14.4
2006-05-10 07:33:06 51°17.108 2°43.664 317.6 12.8 309 14.9
2006-05-10 07:33:12 51°17.121 2°43.639 319.1 12.8 310 15
2006-05-10 07:33:16 51°17.131 2°43.622 320.1 12.8 310 15
2006-05-10 07:33:22 51°17.145 2°43.596 320.7 12.8 311 15.2
2006-05-10 07:33:26 51°17.154 2°43.579 320.8 12.8 311 15.1
2006-05-10 07:33:30 51°17.164 2°43.562 320.8 12.8 311 14.9
2006-05-10 07:33:37 51°17.18 2°43.531 320.2 12.8 310 14.8
2006-05-10 07:33:42 51°17.191 2°43.51 320 12.8 311 14.6
2006-05-10 07:33:47 51°17.203 2°43.488 320 12.8 310 14.5
2006-05-10 07:33:52 51°17.214 2°43.467 320 12.8 311 14.6
2006-05-10 07:33:56 51°17.224 2°43.449 320 12.8 310 15.1
2006-05-10 07:34:02 51°17.238 2°43.424 320 12.8 311 15
2006-05-10 07:34:06 51°17.247 2°43.407 320.1 12.8 311 14.7
2006-05-10 07:34:10 51°17.257 2°43.389 320.2 12.8 311 14.2
2006-05-10 07:34:17 51°17.273 2°43.361 320.2 12.8 311 13.6
2006-05-10 07:34:21 51°17.282 2°43.344 320.3 12.8 312 13.3
2006-05-10 07:34:25 51°17.292 2°43.326 320.9 12.6 313 12.7
2006-05-10 07:34:32 51°17.308 2°43.297 320.9 12.7 312 11.8
2006-05-10 07:34:37 51°17.32 2°43.277 320.2 12.7 311 11.5
2006-05-10 07:34:42 51°17.331 2°43.255 320.3 12.7 312 12.9
2006-05-10 07:34:47 51°17.343 2°43.233 320.2 12.8 310 13.2
2006-05-10 07:34:52 51°17.354 2°43.212 319.8 12.8 311 12.8
2006-05-10 07:34:57 51°17.366 2°43.191 320 12.8 311 11.5
2006-05-10 07:35:02 51°17.378 2°43.17 320 12.8 311 10.8
2006-05-10 07:35:07 51°17.39 2°43.149 320.3 12.6 312 12
2006-05-10 07:35:12 51°17.402 2°43.129 320.9 12.6 312 12.9
2006-05-10 07:35:16 51°17.411 2°43.112 321.4 12.8 313 12.6
2006-05-10 07:35:20 51°17.421 2°43.096 321.3 12.7 313 11.7
2006-05-10 07:35:27 51°17.438 2°43.066 320.7 12.7 312 10.9
2006-05-10 07:35:32 51°17.449 2°43.045 320.3 12.6 311 9.9
2006-05-10 07:35:33 51°17.451 2°43.042 319.8 12.6 312 10.6
2006-05-10 07:35:41 51°17.47 2°43.009 319.8 12.6 312 10.7
2006-05-10 07:35:47 51°17.484 2°42.983 320.1 12.6 312 10.3
2006-05-10 07:35:52 51°17.496 2°42.963 320.2 12.6 313 10.6
2006-05-10 07:35:57 51°17.508 2°42.942 320.4 12.6 312 10.7
2006-05-10 07:36:02 51°17.52 2°42.922 320.4 12.5 312 11
2006-05-10 07:36:07 51°17.532 2°42.9 320.2 12.6 312 12.3
2006-05-10 07:36:12 51°17.543 2°42.88 320.3 12.8 313 13.1
2006-05-10 07:36:16 51°17.553 2°42.863 320.3 12.8 312 13.4
2006-05-10 07:36:22 51°17.568 2°42.838 320.6 12.8 313 14.2
2006-05-10 07:36:25 51°17.575 2°42.825 321.1 12.9 313 15.4
2006-05-10 07:36:32 51°17.592 2°42.796 320.8 12.9 312 17
2006-05-10 07:36:37 51°17.604 2°42.774 319.9 12.9 312 19
2006-05-10 07:36:42 51°17.615 2°42.753 319.6 13 311 20.4
2006-05-10 07:36:47 51°17.628 2°42.731 319.3 13 311 20.8
2006-05-10 07:36:52 51°17.64 2°42.71 319.4 13 312 21.2
2006-05-10 07:36:56 51°17.649 2°42.693 319.6 13 312 21.6
2006-05-10 07:37:02 51°17.664 2°42.667 319.6 13 312 22
2006-05-10 07:37:07 51°17.676 2°42.644 319.6 13 311 22.2
2006-05-10 07:37:12 51°17.688 2°42.623 319.3 13.1 311 22.4
2006-05-10 07:37:17 51°17.7 2°42.602 319.3 13.1 312 22.5
2006-05-10 07:37:22 51°17.712 2°42.579 320 13.1 312 22.9
2006-05-10 07:37:26 51°17.722 2°42.562 320.4 13.1 312 23
2006-05-10 07:37:32 51°17.736 2°42.538 321.1 13.1 313 23.1
2006-05-10 07:37:37 51°17.748 2°42.516 321.2 13.1 313 23.2
2006-05-10 07:37:42 51°17.761 2°42.494 320.9 13.1 312 23.1
2006-05-10 07:37:46 51°17.77 2°42.478 320.7 13.1 313 23.4
2006-05-10 07:37:52 51°17.785 2°42.451 320.7 13.1 312 23.4
2006-05-10 07:37:57 51°17.797 2°42.43 320.2 13.1 312 23.5
2006-05-10 07:38:02 51°17.809 2°42.408 320.2 13 312 23.9
2006-05-10 07:38:06 51°17.819 2°42.391 320.2 13.1 311 23.9
2006-05-10 07:38:12 51°17.833 2°42.365 320 13 312 23.9
2006-05-10 07:38:17 51°17.844 2°42.344 320.4 13 312 24
2006-05-10 07:38:22 51°17.857 2°42.322 320.1 13.1 311 24.1
2006-05-10 07:38:27 51°17.869 2°42.3 319.6 13.1 311 24.3
2006-05-10 07:38:32 51°17.88 2°42.279 319.8 13 311 24.3
2006-05-10 07:38:37 51°17.893 2°42.257 320.2 13 312 24.4
2006-05-10 07:38:42 51°17.904 2°42.236 320 13 312 24.3
2006-05-10 07:38:47 51°17.917 2°42.213 320.2 13 312 24.4
2006-05-10 07:38:51 51°17.925 2°42.195 319.7 13.1 309 24.3
2006-05-10 07:38:57 51°17.939 2°42.169 318.4 13.1 309 24.4
2006-05-10 07:39:02 51°17.95 2°42.145 317.1 13.1 308 24.3
2006-05-10 07:39:06 51°17.958 2°42.127 315.3 13.2 306 24.4
2006-05-10 07:39:12 51°17.972 2°42.099 314.6 13.1 307 24.5
2006-05-10 07:39:16 51°17.98 2°42.08 314.4 13.2 305 24.4
2006-05-10 07:39:22 51°17.993 2°42.051 314.6 13.2 307 24.4
2006-05-10 07:39:26 51°18.001 2°42.033 314.9 13.2 306 24.3
2006-05-10 07:39:32 51°18.015 2°42.004 314.8 13.1 306 24.3
2006-05-10 07:39:36 51°18.023 2°41.985 314.8 13.1 306 24.3
2006-05-10 07:39:42 51°18.036 2°41.957 314.8 13.1 306 24.2
2006-05-10 07:39:46 51°18.044 2°41.938 314.7 13.2 306 24.3
2006-05-10 07:39:52 51°18.058 2°41.91 314.7 13.2 306 24.1
2006-05-10 07:39:56 51°18.066 2°41.891 314.8 13.1 306 24.1
2006-05-10 07:40:02 51°18.079 2°41.863 315 13.2 306 23.9
2006-05-10 07:40:06 51°18.088 2°41.844 314.9 13.2 306 23.8
2006-05-10 07:40:12 51°18.101 2°41.816 315 13.1 306 23.9
2006-05-10 07:40:17 51°18.111 2°41.792 315.1 13.2 306 23.6
2006-05-10 07:40:22 51°18.122 2°41.769 315.3 13.1 307 23.6
2006-05-10 07:40:25 51°18.129 2°41.756 315.7 13.1 307 23.6
2006-05-10 07:40:32 51°18.144 2°41.723 315.7 13.1 307 23.8
2006-05-10 07:40:36 51°18.152 2°41.704 315.4 13.1 306 23.2
2006-05-10 07:40:42 51°18.165 2°41.675 315 13.2 306 23.4
2006-05-10 07:40:47 51°18.176 2°41.651 314.7 13.1 306 23.3
2006-05-10 07:40:52 51°18.186 2°41.627 314.7 13.1 306 23.1
2006-05-10 07:40:57 51°18.197 2°41.604 314.6 13.1 306 22.9
2006-05-10 07:41:02 51°18.208 2°41.58 314.6 13.2 306 22.3
2006-05-10 07:41:06 51°18.216 2°41.561 314.6 13.1 305 21.6
2006-05-10 07:41:10 51°18.225 2°41.542 314.7 13.2 306 20.8
2006-05-10 07:41:17 51°18.24 2°41.508 315 13.1 306 21.4
2006-05-10 07:41:22 51°18.25 2°41.485 315.5 13.1 306 21.5
2006-05-10 07:41:26 51°18.259 2°41.466 315.5 13.1 306 21.3
2006-05-10 07:41:32 51°18.271 2°41.438 315.4 13.2 305 20.4
2006-05-10 07:41:37 51°18.282 2°41.414 314.9 13.1 305 20.7
2006-05-10 07:41:42 51°18.292 2°41.389 314.1 13.2 305 21.4
2006-05-10 07:41:47 51°18.302 2°41.367 313.4 13.2 304 21.7
2006-05-10 07:41:51 51°18.311 2°41.348 314.2 13.1 306 20.9
2006-05-10 07:41:57 51°18.324 2°41.32 314.6 13.1 305 19.4
2006-05-10 07:42:02 51°18.334 2°41.296 315.4 13.1 307 18.9
2006-05-10 07:42:07 51°18.345 2°41.273 315.4 13.1 306 19.4
2006-05-10 07:42:12 51°18.356 2°41.25 315.8 13.1 306 19.1
2006-05-10 07:42:17 51°18.366 2°41.227 315.9 13.1 306 19.5
2006-05-10 07:42:22 51°18.377 2°41.202 315.9 13.1 306 19.2
2006-05-10 07:42:27 51°18.388 2°41.179 315 13.1 305 20.2
2006-05-10 07:42:31 51°18.396 2°41.16 315 13.1 306 19.1
2006-05-10 07:42:37 51°18.409 2°41.133 315.2 13.1 306 17.1
2006-05-10 07:42:42 51°18.42 2°41.11 315.7 13.1 306 18.7
2006-05-10 07:42:46 51°18.428 2°41.091 316.3 13 307 18.7
2006-05-10 07:42:52 51°18.442 2°41.063 315.9 13 306 18.1
2006-05-10 07:42:57 51°18.452 2°41.04 315.7 13.1 306 16.3
2006-05-10 07:43:02 51°18.462 2°41.016 315 13 305 16.2
2006-05-10 07:43:06 51°18.471 2°40.998 315 13 307 16.4
2006-05-10 07:43:12 51°18.484 2°40.969 315.2 13 305 16
2006-05-10 07:43:17 51°18.495 2°40.946 315.5 13 307 16.5
2006-05-10 07:43:22 51°18.505 2°40.923 315.2 13 306 16.1
2006-05-10 07:43:26 51°18.514 2°40.905 315.2 13 307 13.2
2006-05-10 07:43:32 51°18.526 2°40.877 315.6 13 306 14.7
2006-05-10 07:43:37 51°18.537 2°40.854 315.4 13 306 16.2
2006-05-10 07:43:42 51°18.547 2°40.83 315.7 13 307 17.5
2006-05-10 07:43:46 51°18.556 2°40.812 315.6 13.1 306 18.7
2006-05-10 07:43:52 51°18.569 2°40.784 315.2 13.1 306 18.5
2006-05-10 07:43:57 51°18.58 2°40.76 314.9 13 307 16
2006-05-10 07:44:02 51°18.591 2°40.737 315.1 13 307 14.5
2006-05-10 07:44:07 51°18.602 2°40.715 316 13 307 17
2006-05-10 07:44:12 51°18.613 2°40.692 316.5 13 307 18.4
2006-05-10 07:44:17 51°18.624 2°40.67 316.8 13 309 19.5
2006-05-10 07:44:22 51°18.635 2°40.646 316.2 13 306 19.4
2006-05-10 07:44:25 51°18.641 2°40.633 314.9 13 307 18.4
2006-05-10 07:44:32 51°18.656 2°40.6 314.2 13 306 15.8
2006-05-10 07:44:36 51°18.665 2°40.582 314.3 12.9 306 11.3
2006-05-10 07:44:42 51°18.677 2°40.554 314.7 12.9 305 14.6
2006-05-10 07:44:46 51°18.686 2°40.536 314.3 12.9 306 15.7
2006-05-10 07:44:52 51°18.699 2°40.508 314.4 13 306 15
2006-05-10 07:44:56 51°18.707 2°40.491 314.6 13 307 13.8
2006-05-10 07:45:02 51°18.72 2°40.463 315.6 12.9 307 17.6
2006-05-10 07:45:06 51°18.729 2°40.444 316 12.9 308 19.5
2006-05-10 07:45:12 51°18.742 2°40.417 315.7 13 307 20.4
2006-05-10 07:45:16 51°18.751 2°40.398 315 13 306 20.7
2006-05-10 07:45:22 51°18.763 2°40.37 314.5 13 306 21.1
2006-05-10 07:45:27 51°18.774 2°40.347 314.1 13 306 21.7
2006-05-10 07:45:32 51°18.785 2°40.324 314.2 13.1 307 21.3
2006-05-10 07:45:36 51°18.794 2°40.306 315.6 13 308 22.9
2006-05-10 07:45:42 51°18.807 2°40.28 315.7 13 307 23.1
2006-05-10 07:45:47 51°18.818 2°40.255 315.3 13 306 22.9
2006-05-10 07:45:52 51°18.828 2°40.233 314.2 13 306 23.6
2006-05-10 07:45:57 51°18.839 2°40.21 313.9 12.9 306 23.9
2006-05-10 07:46:02 51°18.85 2°40.187 313.6 12.9 306 23.9
2006-05-10 07:46:06 51°18.859 2°40.169 314.2 13 307 23.9
2006-05-10 07:46:10 51°18.868 2°40.151 315.1 12.9 308 23.7
2006-05-10 07:46:17 51°18.883 2°40.12 315.2 12.9 308 23.7
2006-05-10 07:46:22 51°18.894 2°40.098 315.4 12.9 308 23.3
2006-05-10 07:46:26 51°18.901 2°40.079 314.8 12.8 306 22.8
2006-05-10 07:46:32 51°18.914 2°40.05 312.8 12.8 304 23.5
2006-05-10 07:46:36 51°18.921 2°40.03 309.9 12.8 301 23.6
2006-05-10 07:46:42 51°18.93 2°40.001 307.6 12.8 299 23.4
2006-05-10 07:46:46 51°18.937 2°39.98 305.9 12.8 298 23.6
2006-05-10 07:46:52 51°18.948 2°39.949 305.1 12.9 298 23.4
2006-05-10 07:46:56 51°18.954 2°39.93 304.8 12.9 297 23.6
2006-05-10 07:47:02 51°18.964 2°39.899 304.7 12.9 297 23.7
2006-05-10 07:47:06 51°18.971 2°39.879 304.5 13 297 23.8
2006-05-10 07:47:12 51°18.98 2°39.848 304.6 13 298 23.8
2006-05-10 07:47:16 51°18.987 2°39.828 304.1 12.9 296 24
2006-05-10 07:47:22 51°18.997 2°39.797 304.7 13 298 24.1
2006-05-10 07:47:26 51°19.003 2°39.777 305.5 13 298 24.3
2006-05-10 07:47:32 51°19.014 2°39.746 304.8 13 297 24.4
2006-05-10 07:47:36 51°19.02 2°39.725 305.2 13 297 24.4
2006-05-10 07:47:42 51°19.03 2°39.695 305 13 299 24.6
2006-05-10 07:47:47 51°19.039 2°39.669 304.8 13.1 296 24.9
2006-05-10 07:47:52 51°19.047 2°39.644 305.2 13 298 24.9
2006-05-10 07:47:56 51°19.054 2°39.623 305.1 13.1 297 25.1
2006-05-10 07:48:02 51°19.064 2°39.593 305.4 13.1 298 25.5
2006-05-10 07:48:07 51°19.072 2°39.567 305.6 13 297 25.7
2006-05-10 07:48:12 51°19.08 2°39.542 305.1 13 298 25.9
2006-05-10 07:48:17 51°19.089 2°39.516 305.9 12.9 299 26.2
2006-05-10 07:48:22 51°19.097 2°39.491 305.8 13 298 26.4
2006-05-10 07:48:26 51°19.104 2°39.471 305.4 12.9 297 26.5
2006-05-10 07:48:30 51°19.11 2°39.45 305 13 296 26.8
2006-05-10 07:48:37 51°19.122 2°39.414 304.7 13 297 26.9
2006-05-10 07:48:42 51°19.13 2°39.388 305.1 12.9 298 27.2
2006-05-10 07:48:46 51°19.137 2°39.368 304.8 13 297 27.5
2006-05-10 07:48:52 51°19.146 2°39.337 305 13 296 27.5
2006-05-10 07:48:57 51°19.154 2°39.311 304.4 13 296 27.7
2006-05-10 07:49:02 51°19.162 2°39.285 304.1 13 296 27.8
2006-05-10 07:49:06 51°19.169 2°39.265 304.3 13 296 28.2
2006-05-10 07:49:12 51°19.178 2°39.234 304.1 13.1 296 28.4
2006-05-10 07:49:17 51°19.187 2°39.208 304.7 13 297 28.5
2006-05-10 07:49:22 51°19.194 2°39.183 305 13 296 29
2006-05-10 07:49:26 51°19.201 2°39.162 305.2 12.9 297 29
2006-05-10 07:49:32 51°19.211 2°39.131 305.1 12.9 297 28.9
2006-05-10 07:49:37 51°19.219 2°39.106 305.2 13 297 28.9
2006-05-10 07:49:42 51°19.228 2°39.08 305.5 13 298 28.7
2006-05-10 07:49:46 51°19.235 2°39.06 305.3 13 297 28.9
2006-05-10 07:49:52 51°19.245 2°39.03 306.2 13 298 28.6
2006-05-10 07:49:57 51°19.253 2°39.004 306.3 13 297 28.6
2006-05-10 07:50:02 51°19.261 2°38.978 305.5 13 297 28.9
2006-05-10 07:50:07 51°19.269 2°38.952 305.2 13 297 28.8
2006-05-10 07:50:12 51°19.277 2°38.926 304.5 13.1 297 28.7
2006-05-10 07:50:17 51°19.284 2°38.9 304.1 13.1 295 28.7
2006-05-10 07:50:22 51°19.293 2°38.874 304 13.1 296 28.8
2006-05-10 07:50:25 51°19.297 2°38.859 304.8 13.1 297 28.8
2006-05-10 07:50:32 51°19.309 2°38.822 304.8 13.1 296 28.5
2006-05-10 07:50:36 51°19.315 2°38.801 304.8 13.1 297 28.3
2006-05-10 07:50:42 51°19.325 2°38.769 304.9 13.2 296 28.5
2006-05-10 07:50:46 51°19.331 2°38.748 304.9 13.2 298 28.2
2006-05-10 07:50:52 51°19.341 2°38.717 305.6 13.1 297 28
2006-05-10 07:50:56 51°19.348 2°38.697 305.7 13.2 298 27.7
2006-05-10 07:51:02 51°19.358 2°38.665 306 13.2 297 27.7
2006-05-10 07:51:06 51°19.364 2°38.644 305.3 13.2 296 27.5
2006-05-10 07:51:12 51°19.374 2°38.613 304.3 13.2 296 26.9
2006-05-10 07:51:16 51°19.38 2°38.592 304.4 13.2 296 26.9
2006-05-10 07:51:22 51°19.39 2°38.56 304.2 13.2 297 26.7
2006-05-10 07:51:27 51°19.398 2°38.533 304.4 13.1 296 26.2
2006-05-10 07:51:32 51°19.406 2°38.507 304.8 13.2 297 26.2
2006-05-10 07:51:36 51°19.412 2°38.487 304.3 13.2 296 25.6
2006-05-10 07:51:42 51°19.422 2°38.455 304.5 13.1 297 25.5
2006-05-10 07:51:47 51°19.43 2°38.428 304.2 13.2 295 25.1
2006-05-10 07:51:52 51°19.437 2°38.402 303.3 13.2 295 24.1
2006-05-10 07:51:57 51°19.444 2°38.374 301.9 13.1 292 24
2006-05-10 07:52:02 51°19.45 2°38.347 300.6 13.2 293 24.2
2006-05-10 07:52:06 51°19.456 2°38.325 299.9 13.2 291 24.5
2006-05-10 07:52:10 51°19.461 2°38.304 299.5 13.2 292 24
2006-05-10 07:52:17 51°19.47 2°38.267 299.7 13.2 291 23.7
2006-05-10 07:52:22 51°19.477 2°38.24 299.5 13.1 291 22.9
2006-05-10 07:52:26 51°19.482 2°38.218 299.3 13.2 291 22.1
2006-05-10 07:52:32 51°19.49 2°38.186 300.4 13 293 23.4
2006-05-10 07:52:36 51°19.496 2°38.164 299.8 13.1 290 23.1
2006-05-10 07:52:42 51°19.505 2°38.133 300 13.1 294 23.2
2006-05-10 07:52:46 51°19.51 2°38.112 301 13 292 22.6
2006-05-10 07:52:52 51°19.519 2°38.079 301.3 13 294 21.9
2006-05-10 07:52:56 51°19.524 2°38.058 301.2 13 293 22.9
2006-05-10 07:53:02 51°19.532 2°38.026 301.5 13 293 22.4
2006-05-10 07:53:06 51°19.538 2°38.005 301.5 13 294 22.6
2006-05-10 07:53:12 51°19.546 2°37.973 301 13 292 21.6
2006-05-10 07:53:16 51°19.552 2°37.951 300.4 13 292 21.7
2006-05-10 07:53:22 51°19.559 2°37.919 300.4 13 290 22.4
2006-05-10 07:53:26 51°19.565 2°37.898 299.7 13 292 22.7
2006-05-10 07:53:32 51°19.573 2°37.865 300 13 292 22
2006-05-10 07:53:36 51°19.578 2°37.843 299.7 12.9 291 22.3
2006-05-10 07:53:42 51°19.586 2°37.812 299.9 13.1 292 22.5
2006-05-10 07:53:47 51°19.593 2°37.785 299.7 13 291 21.3
2006-05-10 07:53:52 51°19.599 2°37.758 299.4 13 291 19.7
2006-05-10 07:53:56 51°19.604 2°37.736 298.9 13.1 291 21.9
2006-05-10 07:54:02 51°19.612 2°37.705 299.1 13 291 22.4
2006-05-10 07:54:07 51°19.619 2°37.678 299.2 13 292 22
2006-05-10 07:54:12 51°19.626 2°37.651 299.9 13 293 20.4
2006-05-10 07:54:17 51°19.632 2°37.625 300.6 13 292 22
2006-05-10 07:54:22 51°19.639 2°37.598 300.9 12.9 293 22.8
2006-05-10 07:54:26 51°19.644 2°37.577 300.3 13 292 21.2
2006-05-10 07:54:30 51°19.65 2°37.556 301.2 12.9 294 20.4
2006-05-10 07:54:37 51°19.66 2°37.519 300.8 12.9 292 22.2
2006-05-10 07:54:42 51°19.666 2°37.492 300.8 12.9 293 22.9
2006-05-10 07:54:46 51°19.672 2°37.471 300.4 12.9 293 23.2
2006-05-10 07:54:52 51°19.68 2°37.439 300.8 13 293 23
2006-05-10 07:54:57 51°19.687 2°37.413 300.6 12.9 292 22.6
2006-05-10 07:55:02 51°19.694 2°37.386 299.6 13 291 22.3
2006-05-10 07:55:06 51°19.699 2°37.364 299.7 13 293 22.3
2006-05-10 07:55:12 51°19.707 2°37.332 299.8 13 292 22.3
2006-05-10 07:55:17 51°19.714 2°37.306 299.7 13 292 22.3
2006-05-10 07:55:22 51°19.721 2°37.28 299.9 12.9 292 20.8
2006-05-10 07:55:26 51°19.726 2°37.258 299.7 13 292 21.9
2006-05-10 07:55:32 51°19.734 2°37.226 299.8 13 292 22.7
2006-05-10 07:55:37 51°19.741 2°37.2 299.7 13 292 23.1
2006-05-10 07:55:42 51°19.748 2°37.174 300.3 12.9 294 21.8
2006-05-10 07:55:46 51°19.754 2°37.153 300.9 12.9 292 21.1
2006-05-10 07:55:52 51°19.762 2°37.12 300.6 12.9 293 21.2
2006-05-10 07:55:57 51°19.768 2°37.094 300.5 12.9 292 21.9
2006-05-10 07:56:02 51°19.775 2°37.068 300 12.9 293 21.7
2006-05-10 07:56:07 51°19.782 2°37.041 299.8 12.9 292 21.2
2006-05-10 07:56:11 51°19.787 2°37.02 299.6 12.9 292 21.3
2006-05-10 07:56:17 51°19.796 2°36.99 299.7 12.9 293 22.1
2006-05-10 07:56:22 51°19.803 2°36.963 300.4 12.9 293 22.3
2006-05-10 07:56:26 51°19.809 2°36.942 300.5 12.9 293 21.3
2006-05-10 07:56:32 51°19.818 2°36.911 300.7 12.9 293 19.8
2006-05-10 07:56:37 51°19.825 2°36.885 301.2 12.9 294 21.7
2006-05-10 07:56:41 51°19.83 2°36.863 300.8 12.9 294 21.6
2006-05-10 07:56:47 51°19.839 2°36.831 300.4 12.9 293 21.7
2006-05-10 07:56:52 51°19.845 2°36.806 300.1 12.9 292 21.3
2006-05-10 07:56:56 51°19.85 2°36.784 299.9 12.9 292 19.8
2006-05-10 07:57:02 51°19.858 2°36.753 299.7 12.8 292 21.4
2006-05-10 07:57:07 51°19.865 2°36.726 299.1 12.9 292 21.8
2006-05-10 07:57:12 51°19.871 2°36.7 299.1 12.9 292 22.1
2006-05-10 07:57:17 51°19.878 2°36.674 300.1 12.9 293 21.6
2006-05-10 07:57:21 51°19.884 2°36.652 299.7 12.9 293 21.4
2006-05-10 07:57:27 51°19.892 2°36.621 300.1 12.9 293 21.9
2006-05-10 07:57:32 51°19.899 2°36.595 299.9 12.8 292 21.4
2006-05-10 07:57:36 51°19.905 2°36.574 300.4 12.9 292 21.1
2006-05-10 07:57:40 51°19.91 2°36.553 300 13 292 20.9
2006-05-10 07:57:46 51°19.919 2°36.521 300.7 12.9 294 20.8
2006-05-10 07:57:52 51°19.927 2°36.49 301.4 12.9 293 20.9
2006-05-10 07:57:56 51°19.932 2°36.469 301.4 12.9 294 20.9
2006-05-10 07:58:02 51°19.941 2°36.437 300.5 12.9 293 21.5
2006-05-10 07:58:06 51°19.947 2°36.416 300.6 12.9 293 22.1
2006-05-10 07:58:12 51°19.954 2°36.384 300.5 13 292 21.9
2006-05-10 07:58:16 51°19.96 2°36.363 300.2 12.9 292 22.1
2006-05-10 07:58:22 51°19.968 2°36.331 300 12.9 292 22.2
2006-05-10 07:58:26 51°19.974 2°36.311 300.1 12.9 294 21.9
2006-05-10 07:58:32 51°19.982 2°36.279 300.7 12.9 293 21.1
2006-05-10 07:58:36 51°19.988 2°36.258 300.4 12.9 293 21.6
2006-05-10 07:58:42 51°19.996 2°36.226 300.7 12.9 293 22.1
2006-05-10 07:58:46 51°20.001 2°36.206 301 12.9 293 21.9
2006-05-10 07:58:52 51°20.009 2°36.174 300.8 12.9 293 21.6
2006-05-10 07:58:56 51°20.015 2°36.153 300.7 12.9 293 22.1
2006-05-10 07:59:02 51°20.023 2°36.121 300.4 13 292 20.8
2006-05-10 07:59:06 51°20.029 2°36.1 299.9 12.9 293 19.9
2006-05-10 07:59:12 51°20.037 2°36.069 301 12.9 293 21.7
2006-05-10 07:59:16 51°20.043 2°36.047 300.5 13 293 21.1
2006-05-10 07:59:21 51°20.05 2°36.021 300.9 12.9 294 20.8
2006-05-10 07:59:27 51°20.059 2°35.989 300.4 13 292 20.9
2006-05-10 07:59:32 51°20.065 2°35.963 300.4 13 294 20.2
2006-05-10 07:59:37 51°20.072 2°35.936 300.4 13 293 20.3
2006-05-10 07:59:41 51°20.078 2°35.915 300.5 13 293 19.8
2006-05-10 07:59:47 51°20.086 2°35.883 300.4 13 292 19.1
2006-05-10 07:59:52 51°20.093 2°35.857 300.4 12.9 293 19.2
2006-05-10 07:59:56 51°20.098 2°35.836 300.3 13 293 19.1
2006-05-10 08:00:02 51°20.106 2°35.804 300.8 13 293 18.8
2006-05-10 08:00:06 51°20.112 2°35.783 300.4 13 292 18.7
2006-05-10 08:00:12 51°20.12 2°35.751 300.3 12.9 293 18.6
2006-05-10 08:00:16 51°20.126 2°35.73 301 12.9 293 17.7
2006-05-10 08:00:21 51°20.133 2°35.704 300.7 12.9 293 18.1
2006-05-10 08:00:27 51°20.141 2°35.673 300.6 13 293 18.1
2006-05-10 08:00:32 51°20.148 2°35.646 301.1 13 294 17.9
2006-05-10 08:00:37 51°20.155 2°35.62 300.4 12.9 294 17.8
2006-05-10 08:00:41 51°20.161 2°35.599 300.7 12.9 294 17.5
2006-05-10 08:00:47 51°20.169 2°35.566 300.2 12.9 292 17.6
2006-05-10 08:00:52 51°20.176 2°35.541 299.4 12.9 293 17.7
2006-05-10 08:00:56 51°20.181 2°35.52 299.8 12.9 292 17.2
2006-05-10 08:01:00 51°20.187 2°35.499 300.4 12.8 294 17.5
2006-05-10 08:01:06 51°20.196 2°35.467 300.4 12.9 292 17.2
2006-05-10 08:01:12 51°20.205 2°35.436 301 12.9 294 17.9
2006-05-10 08:01:16 51°20.21 2°35.415 300.4 12.9 292 17.4
2006-05-10 08:01:22 51°20.219 2°35.384 299.7 13 293 18.5
2006-05-10 08:01:26 51°20.223 2°35.363 299.7 12.9 292 18.9
2006-05-10 08:01:32 51°20.232 2°35.33 299.6 13 292 19.1
2006-05-10 08:01:36 51°20.238 2°35.309 300 13 293 20.2
2006-05-10 08:01:42 51°20.246 2°35.277 299.7 13.1 292 20.8
2006-05-10 08:01:46 51°20.252 2°35.256 299.6 13.1 293 21.8
2006-05-10 08:01:52 51°20.261 2°35.224 300.7 13.1 293 21.6
2006-05-10 08:01:56 51°20.266 2°35.202 300.6 13.1 294 23.2
2006-05-10 08:02:02 51°20.275 2°35.171 301 13.2 294 23.1
2006-05-10 08:02:06 51°20.281 2°35.149 300.8 13.1 293 23.6
2006-05-10 08:02:12 51°20.289 2°35.117 301.3 13.1 294 24.3
2006-05-10 08:02:17 51°20.297 2°35.091 300.4 13.2 293 25.9
2006-05-10 08:02:22 51°20.304 2°35.064 300.4 13.1 293 25.9
2006-05-10 08:02:25 51°20.309 2°35.047 300.1 13.2 292 26.7
2006-05-10 08:02:32 51°20.318 2°35.01 300.3 13.2 294 27.1
2006-05-10 08:02:36 51°20.324 2°34.989 300.1 13.2 292 28
2006-05-10 08:02:42 51°20.332 2°34.957 299.9 13.2 293 28.9
2006-05-10 08:02:46 51°20.338 2°34.935 300.4 13.1 294 28.3
2006-05-10 08:02:52 51°20.347 2°34.903 300.6 13.1 293 26.3
2006-05-10 08:02:56 51°20.353 2°34.881 300.7 13.2 294 27.8
2006-05-10 08:03:02 51°20.362 2°34.85 300.4 13.1 294 28.8
2006-05-10 08:03:06 51°20.369 2°34.829 301.2 13.2 296 30
2006-05-10 08:03:12 51°20.38 2°34.799 303.5 13.1 299 31
2006-05-10 08:03:17 51°20.389 2°34.775 306.9 13.1 302 31.5
2006-05-10 08:03:22 51°20.399 2°34.75 309 13.1 302 30.4
2006-05-10 08:03:25 51°20.406 2°34.736 310.5 13 305 28.7
2006-05-10 08:03:32 51°20.418 2°34.701 309.9 13.1 301 29
2006-05-10 08:03:36 51°20.427 2°34.682 309.5 13.1 303 29.8
2006-05-10 08:03:42 51°20.439 2°34.653 310.5 13.1 302 31.2
2006-05-10 08:03:46 51°20.447 2°34.633 310.5 13.1 304 31.7
2006-05-10 08:03:52 51°20.459 2°34.605 310.8 13.1 304 31.9
2006-05-10 08:03:56 51°20.467 2°34.586 311.1 13.1 303 32.4
2006-05-10 08:04:02 51°20.479 2°34.556 310.8 13.1 303 32.4
2006-05-10 08:04:06 51°20.486 2°34.536 310.2 13.1 302 31.9
2006-05-10 08:04:12 51°20.498 2°34.507 309.7 13.1 303 31.6
2006-05-10 08:04:17 51°20.508 2°34.482 309.6 13.2 301 29.1
2006-05-10 08:04:22 51°20.517 2°34.457 309.3 13.2 303 30.7
2006-05-10 08:04:25 51°20.523 2°34.442 309.3 13.2 301 31.4
2006-05-10 08:04:32 51°20.537 2°34.408 309.4 13.1 303 31.9
2006-05-10 08:04:36 51°20.545 2°34.389 310.4 13.2 303 32
2006-05-10 08:04:42 51°20.557 2°34.36 310.7 13.1 304 31.8
2006-05-10 08:04:46 51°20.566 2°34.342 311.6 13.1 306 31.6
2006-05-10 08:04:52 51°20.58 2°34.314 313.5 13.1 308 31.9
2006-05-10 08:04:57 51°20.592 2°34.293 316.1 13 310 32.1
2006-05-10 08:05:02 51°20.604 2°34.271 317.9 13.1 311 32
2006-05-10 08:05:05 51°20.611 2°34.258 319.3 13.1 313 31.9
2006-05-10 08:05:12 51°20.628 2°34.229 319.7 13.1 312 31.6
2006-05-10 08:05:16 51°20.638 2°34.212 320.4 13.1 314 31.7
2006-05-10 08:05:22 51°20.653 2°34.186 320.9 13.1 313 32
2006-05-10 08:05:26 51°20.662 2°34.169 320.8 13.1 313 32.2
2006-05-10 08:05:32 51°20.678 2°34.144 320.7 13.1 313 32.4
2006-05-10 08:05:36 51°20.687 2°34.127 320.9 13.1 313 32.5
2006-05-10 08:05:42 51°20.703 2°34.102 320.8 13.1 314 32.5
2006-05-10 08:05:46 51°20.712 2°34.084 321.2 13.1 313 32.4
2006-05-10 08:05:52 51°20.727 2°34.059 320.8 13.2 312 32.4
2006-05-10 08:05:57 51°20.739 2°34.037 320.5 13.1 312 32.4
2006-05-10 08:06:02 51°20.751 2°34.017 320 13.1 313 32
2006-05-10 08:06:05 51°20.759 2°34.003 320.1 13.1 313 31.8
2006-05-10 08:06:12 51°20.776 2°33.973 320.1 13.2 312 31.6
2006-05-10 08:06:16 51°20.786 2°33.957 319.8 13.2 313 31.6
2006-05-10 08:06:22 51°20.801 2°33.931 320.4 13.1 313 31.5
2006-05-10 08:06:26 51°20.811 2°33.915 320.8 13.1 314 31.6
2006-05-10 08:06:32 51°20.826 2°33.889 321 13.1 314 31.7
2006-05-10 08:06:36 51°20.837 2°33.872 320.6 13.1 312 31.7
2006-05-10 08:06:42 51°20.851 2°33.847 320.6 13.1 313 31.6
2006-05-10 08:06:46 51°20.861 2°33.829 320.1 13.1 313 31.7
2006-05-10 08:06:52 51°20.876 2°33.805 320.6 13.1 314 31.7
2006-05-10 08:06:57 51°20.889 2°33.784 320.4 13.2 313 31.6
2006-05-10 08:07:02 51°20.901 2°33.762 320.5 13.1 314 31.8
2006-05-10 08:07:05 51°20.909 2°33.75 320.6 13.2 314 31.6
2006-05-10 08:07:12 51°20.927 2°33.72 320.9 13.2 314 31.4
2006-05-10 08:07:16 51°20.937 2°33.704 320.6 13.1 314 31.5
2006-05-10 08:07:22 51°20.952 2°33.678 320.1 13.2 313 31.8
2006-05-10 08:07:26 51°20.962 2°33.661 320 13.2 313 32
2006-05-10 08:07:32 51°20.977 2°33.635 320.1 13.2 313 31.9